Regional Weather Roundup
Issued by NWS Green Bay, WI

Home | Current Version | Previous Version | Text Only | Print | Product List | Glossary On
Versions: 1 2 3 4 5 6 7 8 9 10 11 12 13 14 15 16 17 18 19 20 21 22 23 24 25 26 27 28 29 30 31 32 33 34 35 36 37 38 39 40 41 42 43 44 45 46 47 48 49 50
000
ASUS43 KGRB 252101
RWRGRB

NORTH-CENTRAL AND NORTHEAST WISCONSIN REGIONAL WEATHER ROUNDUP
NATIONAL WEATHER SERVICE GREEN BAY WI
400 PM CDT TUE JUL 25 2017

WIZ005-009-010>012-018-019-252200-
NORTH CENTRAL WISCONSIN

CITY           SKY/WX    TMP DP  RH WIND       PRES   REMARKS
IRONWOOD       CLOUDY    75  60  59 S8        30.03S
MANITOWISH WTR NOT AVBL
ARBOR VITAE    NOT AVBL
EAGLE RIVER    NOT AVBL
LAND O LAKES   MOSUNNY   75  47  37 S8G17     30.11R
RHINELANDER    CLOUDY    71  57  61 S8        30.11F
PHILLIPS       MOSUNNY   70  62  75 S13       30.07S
ANTIGO         NOT AVBL
TOMAHAWK       NOT AVBL
MERRILL        CLOUDY    65  63  91 S7        30.10F
$$

WIZ013-073-252200-
NORTHEAST WISCONSIN

CITY           SKY/WX    TMP DP  RH WIND       PRES   REMARKS
IRON MOUNTAIN  CLOUDY    76  56  49 S9        30.09F
MARINETTE      PTSUNNY   75  62  64 S14       30.11F
$$

WIZ017-030-035>037-045-252200-
CENTRAL WISCONSIN

CITY           SKY/WX    TMP DP  RH WIND       PRES   REMARKS
MEDFORD        NOT AVBL
WAUSAU         CLOUDY    71  58  63 S14       30.09S
MOSINEE        PTSUNNY   73  61  64 S12       30.13R
MARSHFIELD     CLOUDY    73  61  65 S12       30.09S
WISC RAPIDS    SUNNY     78  61  55 SW12G20   30.11S
STEVENS POINT  NOT AVBL
WAUPACA        NOT AVBL
SHAWANO        CLOUDY    78  59  51 S7        30.11R
CLINTONVILLE   CLOUDY   N/A N/A N/A S12       30.11S
WAUTOMA        PTSUNNY   77  63  61 S14G21    30.11F
$$

WIZ038-039-048-051-252200-
FOX VALLEY

CITY           SKY/WX    TMP DP  RH WIND       PRES   REMARKS
NWS GREEN BAY  PTSUNNY   77  63  61 S13G21    30.11F
APPLETON       PTSUNNY   77  57  50 S13       30.11S
OSHKOSH        CLOUDY    75  62  64 S9        30.11F
FOND DU LAC    CLOUDY    76  59  55 S13       30.13S
$$

WIZ022-050-052-252200-
EAST CENTRAL WISCONSIN

CITY           SKY/WX    TMP DP  RH WIND       PRES   REMARKS
EPHRAIM        NOT AVBL
WASHINGTON ISL NOT AVBL
STURGEON BAY     N/A     73  62  68 S16       30.12F
MANITOWOC      NOT AVBL
SHEBOYGAN      CLOUDY    72  61  68 S16G26    30.14F
$$

LMZ563-521-522-541>543-252200-
LAKESHORE

STATION/POSITION TIME  TEMP    WIND        PRES    VSBY  WAVE
                       AIR SEA DIR/SP/G                  HT/PER
                 (UTC) (F)     (DEG/KT/KT) (MB)    (MI)  (FT/S)
SHEBOYGAN LKSHOR 2000   69     160/ 19/ 21 1020.9F
KEWAUNEE LKSHORE 2024   69     160/ 17/ 19 1020.0
NORTHPORT PIER   2040   69     150/  9/ 14 1020.3F
N MID LAKE BUOY  1950   67 67  180/ 14/ 16 1022.1F         2/ 3
S GREEN BAY BUOY 2030   74 73  180/  8/ 10 1019.3F
SISTER BAY LKSHO 2002   76     180/ 13/ 17   N/A
CHAMBERS ISLAND  2040   74     130/  5/  9 1019.3F
MENOMINEE LKSHOR 2024   74     160/ 12/ 14 1019.7
$$




USA.gov is the U.S. government's official web portal to all federal, state and local government web resources and services.